This demonstration page uses our WeatherBlox Daily Observations layout. Learn more.

Left ArrowRight Arrow

39.01783, -85.05884

Hourly Observations for April 3, 2019

Temp ( °F °C ) Dew Point ( °F °C ) Humidity (%) Winds ( mph kmh ) Pressure ( in mb ) Visibility ( mi km ) Precip ( " mm )
12:52 am 00:52 Clear 46 7.8 25 -3.9 44 44 SSW 5 7 30.11 1020 10 16 N/A
1:52 am 01:52 Clear 42 5.6 26 -3.3 53 53 SSW 6 9 30.11 1020 10 16 N/A
2:52 am 02:52 Clear 44 6.7 25 -3.9 47 47 SW 8 13 30.11 1020 10 16 N/A
3:52 am 03:52 Clear 43 6.1 25 -3.9 49 49 SSW 6 9 30.11 1020 10 16 N/A
4:52 am 04:52 Clear 45 7.2 25 -3.9 46 46 WSW 6 9 30.14 1021 10 16 N/A
5:52 am 05:52 Clear 43 6.1 26 -3.3 51 51 W 9 15 30.17 1022 10 16 N/A
6:52 am 06:52 Clear 42 5.6 26 -3.3 53 53 W 6 9 30.21 1023 10 16 N/A
7:52 am 07:52 Sunny 40 4.4 28 -2.2 63 63 WSW 5 7 30.25 1024 10 16 N/A
8:52 am 08:52 Sunny 46 7.8 33 0.6 61 61 W 3 6 30.27 1025 10 16 N/A
9:52 am 09:52 Sunny 50 10 32 undefined 50 50 W 6 9 30.29 1026 10 16 N/A
10:52 am 10:52 Mostly Sunny 53 11.7 33 0.6 47 47 N 10 17 30.31 1026 10 16 N/A
11:52 am 11:52 Mostly Sunny 56 13.3 33 0.6 42 42 NW 5 7 30.33 1027 10 16 N/A
12:52 pm 12:52 Partly Cloudy 58 14.4 32 undefined 38 38 NW 12 19 30.32 1027 10 16 N/A
1:52 pm 13:52 Mostly Cloudy 60 15.6 31 -0.6 33 33 VRB 7 11 30.32 1027 10 16 N/A
2:52 pm 14:52 Mostly Cloudy 60 15.6 33 0.6 36 36 SSE 8 13 30.31 1026 10 16 N/A
3:52 pm 15:52 Mostly Cloudy 59 15 29 -1.7 32 32 WSW 6 9 30.29 1026 10 16 N/A
4:52 pm 16:52 Mostly Cloudy 59 15 29 -1.7 32 32 WSW 7 11 30.28 1025 10 16 N/A
5:52 pm 17:52 Mostly Cloudy 60 15.6 29 -1.7 31 31 NNW 7 11 30.27 1025 10 16 N/A
6:52 pm 18:52 Cloudy 58 14.4 28 -2.2 32 32 NW 6 9 30.27 1025 10 16 N/A
7:52 pm 19:52 Mostly Cloudy 57 13.9 27 -2.8 32 32 NNW 5 7 30.28 1026 10 16 N/A
8:52 pm 20:52 Partly Cloudy 55 12.8 27 -2.8 34 34 NNE 5 7 30.28 1025 10 16 N/A
9:52 pm 21:52 Cloudy 54 12.2 28 -2.2 37 37 NNE 3 6 30.29 1026 10 16 N/A
10:52 pm 22:52 Cloudy 53 11.7 30 -1.1 41 41 ENE 5 7 30.30 1026 10 16 N/A
11:52 pm 23:52 Cloudy 54 12.2 29 -1.7 38 38 ENE 6 9 30.30 1026 10 16 N/A

Powered by AerisWeather